EW3804 Weather Reports


time (UTC)temp
F
wind
direction
speed
knots
gust
knots
rain 1hr
in
rain 24hr
in
rain mn
in
humidity
%
barometer
mb
20260905020007 85 147 2.6 7.0 0.00 0.02 0.02 66 1005.1
20260905014502 86 162 4.3 7.0 0.00 0.02 0.02 64 1004.8
20260905013102 87 143 4.3 8.7 0.00 0.02 0.02 62 1004.7
20260905011557 87 148 3.5 6.1 0.00 0.02 0.02 62 1004.6
20260905010048 88 139 4.3 10.4 0.00 0.02 0.02 60 1004.3
20260905004544 89 141 6.1 13.0 0.00 0.02 0.02 58 1004.3
20260905003039 90 153 6.1 12.2 0.00 0.02 0.02 54 1004.0
20260905001535 91 147 7.0 13.0 0.00 0.02 0.02 53 1003.8
20260905000031 93 146 7.0 12.2 0.00 0.02 0.02 48 1003.7
20260904234525 93 127 6.1 12.2 0.00 0.02 0.02 47 1003.6
20260904233021 94 139 6.1 11.3 0.00 0.02 0.02 47 1003.5
20260904231516 94 125 5.2 10.4 0.00 0.02 0.02 45 1003.4
20260904230012 95 143 7.0 12.2 0.00 0.02 0.02 45 1003.5
20260904224508 95 117 5.2 10.4 0.00 0.02 0.02 43 1003.5
20260904223003 95 120 5.2 10.4 0.00 0.02 0.02 43 1003.6
20260904221601 96 148 4.3 12.2 0.00 0.02 0.02 43 1003.7
20260904220056 95 124 5.2 12.2 0.00 0.02 0.02 45 1003.8
20260904214551 95 145 6.1 13.0 0.00 0.02 0.02 46 1004.0
20260904213045 95 105 9.6 15.6 0.00 0.02 0.02 45 1004.1
20260904211541 96 155 6.1 14.8 0.00 0.02 0.02 45 1004.2
20260904210043 95 72 7.8 13.0 0.00 0.02 0.02 45 1004.3
20260904204531 95 138 4.3 9.6 0.00 0.02 0.02 46 1004.6
20260904203026 95 115 4.3 13.0 0.00 0.02 0.02 46 1004.6
20260904201521 96 193 6.1 11.3 0.00 0.02 0.02 45 1004.8
20260904200019 95 122 3.5 10.4 0.00 0.02 0.02 45 1004.9
20260904194513 95 124 5.2 12.2 0.00 0.02 0.02 47 1005.0
20260904193008 95 133 3.5 9.6 0.00 0.02 0.02 47 1005.1
20260904191503 93 142 2.6 9.6 0.00 0.02 0.02 51 1005.4
20260904190059 93 84 4.3 9.6 0.00 0.02 0.02 52 1005.7
20260904184556 92 122 4.3 9.6 0.00 0.02 0.02 52 1005.8
20260904183049 92 114 4.3 8.7 0.00 0.02 0.02 54 1006.0
20260904181545 93 117 1.7 9.6 0.00 0.02 0.02 54 1006.1
20260904180042 92 114 2.6 9.6 0.00 0.02 0.02 54 1006.3
20260904174543 91 202 3.5 7.8 0.00 0.02 0.02 57 1006.5
20260904173033 91 158 3.5 7.8 0.00 0.02 0.02 58 1006.6
20260904171530 91 237 3.5 8.7 0.00 0.02 0.02 57 1006.8
20260904170021 91 137 2.6 10.4 0.00 0.02 0.02 59 1007.0
20260904164517 91 228 6.1 10.4 0.00 0.02 0.02 57 1007.0
20260904163021 89 186 4.3 11.3 0.00 0.02 0.02 62 1006.9
20260904161508 88 129 2.6 8.7 0.00 0.02 0.02 66 1007.0
20260904160003 88 207 5.2 9.6 0.00 0.02 0.02 65 1007.1
20260904154558 86 240 5.2 9.6 0.00 0.02 0.02 69 1007.0
20260904153055 85 180 5.2 12.2 0.00 0.02 0.02 74 1007.0
20260904151549 85 189 7.0 11.3 0.00 0.02 0.02 75 1007.1
20260904150104 84 190 4.3 10.4 0.00 0.02 0.02 79 1007.1
20260904144540 83 164 4.3 9.6 0.01 0.02 0.02 82 1006.8
20260904143036 81 216 1.7 6.1 0.01 0.02 0.02 88 1006.9
20260904141531 80 155 0.0 3.5 0.01 0.02 0.02 90 1006.8
20260904140027 80 134 1.7 4.3 0.02 0.02 0.02 90 1006.8
20260904134540 79 115 0.0 3.5 0.01 0.01 0.01 91 1006.8
20260904133018 79 178 0.0 2.6 0.01 0.01 0.01 92 1006.6
20260904131519 78 165 0.0 2.6 0.01 0.01 0.01 92 1006.5
20260904130017 78 126 0.0 3.5 0.00 0.00 0.00 92 1006.5
20260904124504 0 0.0 0.0 0.00 0.00 0.00 1006.1
20260904123059 0 0.0 0.0 0.00 0.00 0.00 1006.0
20260904121556 0 0.0 0.0 0.00 0.00 0.00 1005.9
20260904120103 0 0.0 0.0 0.00 0.00 0.00 1005.7
20260904114548 0 0.0 0.0 0.00 0.00 0.00 1005.5
20260904113042 0 0.0 0.0 0.00 0.00 0.00 1005.4
20260904111538 0 0.0 0.0 0.00 0.00 0.00 1005.4
20260904110034 0 0.0 0.0 0.00 0.00 0.00 1005.5
20260904104530 0 0.0 0.0 0.00 0.00 0.00 1005.3
20260904103025 0 0.0 0.0 0.00 0.00 0.00 1005.3
20260904101521 0 0.0 0.0 0.00 0.00 0.00 1005.2
20260904100017 0 0.0 0.0 0.00 0.00 0.00 1005.0
20260904094524 0 0.0 0.0 0.00 0.00 0.00 1004.9
20260904093008 79 193 2.6 5.2 0.00 0.00 0.00 89 1004.9
20260904091506 79 167 0.9 3.5 0.00 0.00 0.00 89 1005.0
20260904090006 79 143 1.7 5.2 0.00 0.00 0.00 89 1005.0
20260904084510 78 148 1.7 6.1 0.00 0.00 0.00 90 1005.0
20260904083003 78 148 2.6 6.1 0.00 0.00 0.00 90 1004.9
20260904081504 79 155 3.5 5.2 0.00 0.00 0.00 89 1004.9
20260904080100 79 130 3.5 6.1 0.00 0.00 0.00 88 1005.1
20260904074559 78 136 3.5 7.0 0.00 0.00 0.00 88 1005.1
20260904073058 78 141 0.9 3.5 0.00 0.00 0.00 88 1005.1
20260904071556 78 141 2.6 6.1 0.00 0.00 0.00 88 1005.1
20260904070059 79 158 4.3 7.0 0.00 0.00 0.00 87 1005.1
20260904064553 79 163 3.5 6.1 0.00 0.00 0.00 87 1005.2
20260904063058 79 144 1.7 6.1 0.00 0.00 0.00 87 1005.2
20260904061552 79 136 1.7 6.1 0.00 0.00 0.00 86 1005.3
20260904060051 79 131 2.6 7.0 0.00 0.00 0.00 86 1005.4
20260904054552 79 127 4.3 7.8 0.00 0.00 0.00 86 1005.4
20260904053048 79 137 1.7 7.0 0.00 0.00 0.00 86 1005.3
20260904051550 79 147 2.6 7.0 0.00 0.00 0.00 86 1005.3
20260904050045 79 105 3.5 6.1 0.00 0.00 0.00 85 1005.1
20260904044545 79 116 3.5 8.7 0.00 0.00 0.00 85 1005.3
20260904043050 79 101 3.5 7.8 0.00 0.00 0.00 84 1005.2
20260904041543 79 96 2.6 7.8 0.00 0.00 0.00 84 1005.2
20260904040045 80 82 5.2 9.6 0.00 0.00 0.00 84 1005.1
20260904034550 80 128 4.3 11.3 0.00 0.00 0.00 83 1005.1
20260904033040 80 124 4.3 9.6 0.00 0.00 0.00 82 1005.1
20260904031540 80 155 3.5 8.7 0.00 0.00 0.00 81 1005.1
20260904030040 81 119 3.5 8.7 0.00 0.00 0.00 80 1004.8
20260904024546 81 121 3.5 7.8 0.00 0.00 0.00 78 1004.8
20260904023045 82 117 3.5 6.1 0.00 0.00 0.00 77 1004.6
20260904021537 82 146 3.5 7.0 0.00 0.00 0.00 76 1004.4